Regional Weather Roundup
Issued by NWS Upton, NY

Current Version | Previous Version | Graphics & Text | Print | Product List | Glossary Off
Versions: 1 2 3 4 5 6 7 8 9 10 11 12 13 14 15 16 17 18 19 20 21 22 23 24 25 26 27

000
ASUS41 KOKX 251009
RWROKX

REGIONAL WEATHER ROUNDUP
NATIONAL WEATHER SERVICE NEW YORK NY
600 AM EDT SUN JUN 25 2017

NOTE: "FAIR" INDICATES FEW OR NO CLOUDS BELOW 12,000 FEET WITH NO
SIGNIFICANT WEATHER AND/OR OBSTRUCTIONS TO VISIBILITY.

NYZ071-072-176-178-NJZ106-104-251100-
NEW YORK CITY METRO AREA

CITY           SKY/WX    TMP DP  RH WIND       PRES   REMARKS
Central Park   CLEAR     68  59  73 CALM      29.99R
Bronx Bot Gard   N/A     66  57  72 E1        29.99R
LaGuardia APRT PTCLDY    71  61  70 NW3       29.95R
Kennedy INTL   PTCLDY    70  61  73 N3        29.97R
Breezy Point     N/A     68 N/A N/A NW2         N/A
Newark/Liberty PTCLDY    70  59  68 N6        29.96R
Teterboro      CLEAR     67  59  75 CALM      29.95R
$$

NYZ177-179-078>081-251100-
LONG ISLAND NEW YORK

CITY           SKY/WX    TMP DP  RH WIND       PRES   REMARKS
Jones Beach      N/A     68 N/A N/A NW2         N/A
Matinecock PT  NOT AVBL
Farmingdale    NOT AVBL
MacArthur/ISP  PTCLDY    64  62  93 CALM      29.95R
Shirley        MOCLDY    63  62  97 CALM      29.96R
Mt Sinai Harb    N/A    N/A N/A N/A MISG        N/A
Westhampton    PTCLDY    57  55  93 CALM      29.97R
East Hampton   FAIR      58  56  94 CALM      29.95R
Montauk          N/A     65  60  84 CALM      29.96R
$$

NYZ052-065-067-251100-
HUDSON VALLEY

CITY           SKY/WX    TMP DP  RH WIND       PRES   REMARKS
White Plains   NOT AVBL
Larchmont Harb   N/A     66 N/A N/A S2          N/A
Croton O-T Hud   N/A     63 N/A N/A NE2         N/A
Newburgh       CLEAR     61  61 100 CALM      29.97S
Montgomery     CLEAR     58  57  97 S3        29.96S
Poughkeepsie   CLEAR     58  57  97 NE3       29.95R FOG
Albany         PTCLDY    58  53  84 CALM      29.93S
$$

NJZ001-105-106-008-010-013-015-019>022-104-251100-
NEW JERSEY

CITY           SKY/WX    TMP DP  RH WIND       PRES   REMARKS
Newark/Liberty PTCLDY    70  59  68 N6        29.96R
Teterboro      CLEAR     67  59  75 CALM      29.95R
Caldwell       CLEAR     64  59  83 CALM      29.98R
Somerville     CLEAR     60  59  96 NW3       29.95R
Linden         FAIR      67  58  73 CALM      29.96R
Perth Amboy      N/A     70 N/A N/A NW1         N/A
Sussex         CLEAR     57  57 100 CALM      29.98R
Andover          N/A     58  57  97 CALM      29.98R
Trenton        MOCLDY    65  62  90 NW3       29.96R
Millville      CLEAR     63  63 100 CALM      29.97R
Atlantic City  NOT AVBL
Wrightstown    PTCLDY    64  61  92 CALM      29.95R
Toms River     CLEAR     60  58  92 CALM      29.97R
Belmar         CLEAR     65  60  84 NW6       29.98R
$$

PAZ047>061-062-071-251100-
EASTERN PENNSYLVANIA

CITY           SKY/WX    TMP DP  RH WIND       PRES   REMARKS
Philadelphia   PTCLDY    72  61  68 NW5       29.97R
Allentown      CLEAR     60  57  89 CALM      29.97R
Scranton       PTCLDY    57  55  93 E3        29.98S
$$

CTZ002-004>006-009-010-012-RIZ004-006-007-MAZ004-011-015-251100-
SOUTHERN NEW ENGLAND
 IN CT

CITY           SKY/WX    TMP DP  RH WIND       PRES   REMARKS
Bradley INTL   PTCLDY    61  56  83 W6        29.94R
Hartford       CLEAR     62  60  93 CALM      29.94R
Danbury        CLEAR     58  58 100 CALM      29.98R
Wtrbury/Oxford PTCLDY    57  54  88 CALM      29.97R
Bridgeport     CLEAR     68  61  78 CALM      29.96R
Meriden        CLEAR     59  58  96 CALM      29.95R
New Haven      PTCLDY    63  59  88 CALM      29.95
Chester        FAIR      63  59  88 CALM      29.96R
Groton         PTCLDY    61  58  90 N3        29.94R
Wilimantic     CLEAR     62  59  90 CALM      29.95R

 IN RI

CITY           SKY/WX    TMP DP  RH WIND       PRES   REMARKS
Providence     PTCLDY    64  58  80 W5        29.93R
Block Island   PTCLDY    65  58  78 W6        29.95R
Westerly       CLEAR     62  59  90 CALM      29.95R
 IN MA

CITY           SKY/WX    TMP DP  RH WIND       PRES   REMARKS
Boston         PTCLDY    69  53  56 W9        29.90R
Worcester      CLEAR     61  52  72 W10       29.94R
Westfield      CLEAR     58  55  90 CALM        N/A
Provincetown   CLEAR     64  58  80 SW6       29.91R
Nantucket      PTCLDY    60  60 100 SW5       29.92R
$$

ANZ330-335-338-340-345-350-353-355-251100-
COASTAL MARINE OBSERVATIONS


STATION/POSITION TIME  SKY/WX   TEMP    WIND        PRES    VSBY  WAVE
                                AIR SEA DIR/SP/G                  HT/PER
                 (UTC)          (F)     (DEG/KT/KT) (MB)    (MI)  (FT/S)
NY HARB ENTRANCE 0850            68 67  300/  6/  6 1013.6          3/ 8
20 S FIRE ISLAND 0950            69 68  350/  4/  6 1013.8          4/ 8
GREAT SOUTH BAY  0900            70 76  330/  4/  6   N/A
23 SSW MONTAUK P 0850            65 63              1013.7          5/ 8
15 E BARNEGAT LI 0930               64                N/A           4/ 8
HUDSON CANYON    0850            70 67  250/  8/ 10 1013.8          5/ 7
KINGS POINT      0936            68 65   60/  1/  1 1014.3
EXECUTION ROCKS  0945            66     180/  2/  4   N/A
CENTRAL LI SOUND 0930            71     300/  4/  6   N/A           1
EASTERN LI SOUND NOT AVBL
ROBBINS REEF     0936                   360/  3/  3 1014.9
$$


>>>>>>>>>>>>>>>>>>>>>>>>>>>> KEY <<<<<<<<<<<<<<<<<<<<<<<<<<<
>                                                          <
>     SKY/WX - Sky Condition/Present Weather               <
>     TMP    - Temperature in Fahrenheit                   <
>     DP     - Dew Point in Fahrenheit                     <
>     RH     - Relative Humidity in Percent                <
>     WIND   - Direction (from) and Speed in MPH           <
>     PRES   - Mean Sea Level Pressure (inches of Hg)      <
>     WCI    - Wind Chill Index                            <
>     VSB    - VISIBILITY IN MILES                         <
>     HX     - HEAT INDEX                                  <
>     TC     - TEMPERATURE IN CELSIUS                      <
>     VRB    - VARIABLE WIND DIRECTION                     <
>                                                          <
>>>>>>>>>>>>>>>>>>>>>>>>>>>> KEY <<<<<<<<<<<<<<<<<<<<<<<<<<<




USA.gov is the U.S. government's official web portal to all federal, state and local government web resources and services.